Regional Weather Roundup
Issued by NWS

Home | Current Version | Previous Version | Text Only | Print | Product List | Glossary Off
Versions: 1 2 3 4 5 6 7 8 9 10 11 12 13 14 15 16 17 18 19 20 21 22 23 24 25 26 27 28 29 30 31 32 33 34 35 36 37 38 39 40 41 42 43 44 45 46 47 48 49 50

000
ASUS43 KFSD 271702
RWRSD

WEATHER ROUNDUP FOR SOUTH DAKOTA
NATIONAL WEATHER SERVICE SIOUX FALLS SD
1100 AM CST SAT DEC 27 2014

NOTE: "FAIR" INDICATES FEW OR NO CLOUDS BELOW 12,000 FEET WITH NO
SIGNIFICANT WEATHER AND/OR OBSTRUCTIONS TO VISIBILITY.


SDZ001>005-009-010-012>017-271800-
NORTHWEST AND NORTH CENTRAL SOUTH DAKOTA

CITY           SKY/WX    TMP DP  RH WIND       PRES   REMARKS
BUFFALO          N/A     23  16  74 W18       29.99S WCI   9
FAITH            N/A     25  16  68 W15       30.10S WCI  13
MOBRIDGE       SUNNY     13   9  84 SE5       30.10S WCI   5
$$

SDZ012>016-024>037-041>051-057-063-072>074-271800-
SOUTHWEST AND SOUTH CENTRAL SOUTH DAKOTA

CITY           SKY/WX    TMP DP  RH WIND       PRES   REMARKS
RAPID CTY ARPT SUNNY     17   9  70 CALM      30.11R
PIERRE         SUNNY     12   8  84 SW8       30.17R WCI   0
CUSTER         SUNNY     22   8  55 W10       30.00R WCI  11
ELLSWORTH AFB  SUNNY     16   8  71 SW3       30.09S
PHILIP         SUNNY     18  12  77 W7        30.17S WCI   9
PINE RIDGE     SUNNY     19  11  70 SW8       30.15R WCI   9
WINNER         FAIR      19  10  68 W10       30.20R WCI   7
$$

SDZ004>011-016>023-039-040-271800-
NORTHEAST SOUTH DAKOTA

CITY           SKY/WX    TMP DP  RH WIND       PRES   REMARKS
ABERDEEN       SUNNY     14   9  80 SW10      30.15S WCI   1
WATERTOWN      SUNNY      8   4  83 SW6       30.12F WCI  -2
SISSETON         N/A     16   8  71 W7        30.12F WCI   6
$$

SDZ017-020-022-023-036>040-048>070-271800-
SOUTHEAST SOUTH DAKOTA

CITY           SKY/WX    TMP DP  RH WIND       PRES   REMARKS
SIOUX FALLS    SUNNY     13   9  84 W6        30.21R WCI   4
HURON          SUNNY      9   6  88 SW6       30.21R WCI  -1
MITCHELL       SUNNY     13   8  81 W9        30.24R WCI   1
YANKTON        SUNNY     12   7  79 W7        30.27R WCI   2
$$

ABBREVIATIONS USED IN REMARKS
   TC - TEMPERATURE IN CELSIUS
  WCI - WIND CHILL INDEX
   HX - HEAT INDEX
  VSB - VISIBILITY



USA.gov is the U.S. government's official web portal to all federal, state and local government web resources and services.